CW0133 Weather Reports


Display with metric or nautical units.
time (UTC)temp
F
wind
direction
speed
MPH
gust
MPH
rain 1hr
in
rain 24hr
in
rain mn
in
humidity
%
barometer
mb
20210622233502 87 15 2.0 6.0 0.00 0.03 0.03 66 1011.6
20210622233002 88 15 2.0 5.0 0.00 0.03 0.03 65 1011.7
20210622232502 88 21 2.0 8.0 0.00 0.03 0.03 65 1011.7
20210622232002 88 34 2.0 8.0 0.00 0.03 0.03 65 1011.6
20210622231502 88 43 2.0 6.0 0.00 0.03 0.03 67 1011.8
20210622231002 88 56 4.0 6.0 0.00 0.03 0.03 67 1011.8
20210622230502 88 73 4.0 8.0 0.00 0.03 0.03 68 1011.9
20210622230003 88 87 4.0 8.0 0.00 0.03 0.03 65 1011.9
20210622225502 89 93 4.0 8.0 0.00 0.03 0.03 63 1012.0
20210622225002 90 36 4.0 8.0 0.00 0.03 0.03 64 1012.1
20210622224502 90 355 2.0 7.0 0.00 0.03 0.03 64 1012.2
20210622224002 89 355 2.0 5.0 0.00 0.03 0.03 64 1012.2
20210622223503 89 355 4.0 7.0 0.00 0.03 0.03 66 1012.2
20210622223002 88 355 5.0 7.0 0.00 0.03 0.03 64 1012.3
20210622222502 88 352 5.0 8.0 0.00 0.03 0.03 65 1012.3
20210622222002 88 1 5.0 8.0 0.00 0.03 0.03 66 1012.2
20210622221502 88 16 4.0 10.0 0.00 0.03 0.03 65 1012.3
20210622221002 88 8 4.0 10.0 0.00 0.03 0.03 66 1012.4
20210622220502 88 354 4.0 10.0 0.00 0.03 0.03 66 1012.5
20210622220002 88 343 5.0 10.0 0.00 0.03 0.03 68 1012.6
20210622215503 86 330 4.0 10.0 0.00 0.03 0.03 69 1012.5
20210622215002 86 324 2.0 6.0 0.00 0.03 0.03 70 1012.5
20210622214502 86 324 2.0 6.0 0.00 0.03 0.03 70 1012.7
20210622214002 86 323 4.0 7.0 0.00 0.03 0.03 70 1012.7
20210622213502 85 323 4.0 7.0 0.00 0.03 0.03 70 1012.7
20210622213002 85 321 2.0 7.0 0.00 0.03 0.03 70 1012.8
20210622212503 85 335 4.0 7.0 0.00 0.03 0.03 70 1013.0
20210622212002 85 352 4.0 7.0 0.00 0.03 0.03 70 1012.9
20210622211502 85 7 4.0 8.0 0.00 0.03 0.03 71 1012.9
20210622211002 85 7 2.0 8.0 0.00 0.03 0.03 70 1013.0
20210622210502 85 336 2.0 8.0 0.00 0.03 0.03 70 1013.1
20210622210003 85 357 4.0 8.0 0.00 0.03 0.03 69 1013.1
20210622205503 85 31 4.0 8.0 0.00 0.03 0.03 71 1013.1
20210622205002 85 36 4.0 7.0 0.00 0.03 0.03 70 1013.2
20210622204503 85 37 2.0 6.0 0.00 0.03 0.03 69 1013.4
20210622204003 85 30 2.0 8.0 0.00 0.03 0.03 70 1013.4
20210622203503 85 30 4.0 8.0 0.00 0.03 0.03 70 1013.6
20210622203003 85 54 4.0 8.0 0.00 0.03 0.03 70 1013.6
20210622202502 85 55 4.0 8.0 0.00 0.03 0.03 69 1013.8
20210622202002 85 60 4.0 6.0 0.00 0.03 0.03 70 1014.0
20210622201503 85 67 4.0 8.0 0.00 0.03 0.03 70 1013.8
20210622201002 85 17 4.0 8.0 0.00 0.03 0.03 71 1013.9
20210622200503 85 23 4.0 7.0 0.00 0.03 0.03 69 1013.9
20210622200003 85 43 4.0 8.0 0.00 0.03 0.03 70 1014.1
20210622195502 84 29 4.0 8.0 0.00 0.03 0.03 71 1014.3
20210622195003 84 342 4.0 6.0 0.00 0.03 0.03 71 1014.2
20210622194502 85 331 4.0 7.0 0.00 0.03 0.03 72 1014.1
20210622194003 85 330 5.0 10.0 0.00 0.03 0.03 70 1014.4
20210622193503 85 332 5.0 10.0 0.00 0.03 0.03 69 1014.4
20210622193002 84 347 5.0 10.0 0.00 0.03 0.03 72 1014.3
20210622192503 83 358 5.0 10.0 0.00 0.03 0.03 73 1014.4
20210622192003 83 352 6.0 12.0 0.00 0.03 0.03 72 1014.4
20210622191502 83 350 6.0 12.0 0.00 0.03 0.03 72 1014.4
20210622191003 83 358 6.0 11.0 0.00 0.03 0.03 73 1014.5
20210622190503 82 18 5.0 8.0 0.00 0.03 0.03 73 1014.6
20210622190002 82 57 5.0 11.0 0.00 0.03 0.03 74 1014.7
20210622185503 82 52 6.0 11.0 0.00 0.03 0.03 75 1014.8
20210622185003 83 25 6.0 13.0 0.00 0.03 0.03 73 1014.6
20210622184503 82 19 6.0 13.0 0.00 0.03 0.03 74 1014.6
20210622184003 82 19 5.0 10.0 0.00 0.03 0.03 75 1014.8
20210622183502 81 18 5.0 8.0 0.00 0.03 0.03 75 1014.9
20210622183003 81 21 4.0 7.0 0.00 0.03 0.03 75 1015.0
20210622182503 81 18 4.0 11.0 0.00 0.03 0.03 76 1015.1
20210622182003 82 16 5.0 13.0 0.00 0.03 0.03 75 1015.1
20210622181503 82 21 5.0 13.0 0.00 0.03 0.03 74 1015.0
20210622181003 82 349 5.0 10.0 0.00 0.03 0.03 73 1015.2
20210622180503 82 333 6.0 12.0 0.00 0.03 0.03 74 1015.0
20210622180003 82 358 6.0 12.0 0.00 0.03 0.03 74 1014.9
20210622175503 82 17 6.0 13.0 0.00 0.03 0.03 74 1015.0
20210622175003 82 2 6.0 13.0 0.00 0.03 0.03 74 1014.8
20210622174503 82 348 7.0 12.0 0.00 0.03 0.03 73 1014.8
20210622174003 82 349 5.0 11.0 0.00 0.03 0.03 74 1014.8
20210622173503 82 9 2.0 7.0 0.00 0.03 0.03 75 1015.1
20210622173003 82 10 4.0 6.0 0.00 0.03 0.03 75 1015.2
20210622172503 82 6 5.0 11.0 0.00 0.03 0.03 74 1015.2
20210622172003 82 355 5.0 11.0 0.00 0.03 0.03 75 1015.2
20210622171503 81 341 5.0 11.0 0.00 0.03 0.03 76 1015.1
20210622171003 81 346 5.0 10.0 0.00 0.03 0.03 76 1015.1
20210622170503 81 350 6.0 10.0 0.00 0.03 0.03 77 1015.1
20210622170003 81 351 5.0 8.0 0.00 0.03 0.03 76 1015.1
20210622165503 80 350 2.0 7.0 0.00 0.03 0.03 76 1015.2
20210622165003 80 350 1.0 6.0 0.00 0.03 0.03 77 1015.2
20210622164503 80 350 1.0 4.0 0.00 0.03 0.03 77 1015.2
20210622164003 80 350 2.0 5.0 0.00 0.03 0.03 77 1015.3
20210622163504 80 350 2.0 8.0 0.00 0.03 0.03 77 1015.2
20210622163003 79 350 2.0 8.0 0.00 0.03 0.03 79 1015.0
20210622162503 79 351 4.0 7.0 0.00 0.03 0.03 78 1015.0
20210622162003 79 354 4.0 7.0 0.00 0.03 0.03 79 1015.0
20210622161503 79 352 5.0 8.0 0.00 0.03 0.03 78 1015.0
20210622161003 79 346 5.0 10.0 0.00 0.03 0.03 79 1014.9
20210622160503 78 342 5.0 10.0 0.00 0.03 0.03 79 1014.9
20210622160003 78 342 4.0 8.0 0.00 0.03 0.03 79 1015.0
20210622155503 78 343 5.0 10.0 0.00 0.03 0.03 78 1014.9
20210622155003 78 339 6.0 10.0 0.00 0.03 0.03 78 1014.9
20210622154503 78 334 4.0 10.0 0.00 0.03 0.03 79 1014.9
20210622154003 78 338 2.0 8.0 0.00 0.03 0.03 78 1014.9
20210622153503 78 337 4.0 10.0 0.00 0.03 0.03 79 1014.8
20210622153003 78 337 5.0 11.0 0.00 0.03 0.03 79 1014.8
20210622152503 78 345 6.0 11.0 0.00 0.03 0.03 80 1014.6
20210622152003 78 8 6.0 11.0 0.00 0.03 0.03 80 1014.6
20210622151504 77 6 6.0 8.0 0.00 0.03 0.03 81 1014.5
20210622151002 76 356 5.0 8.0 0.00 0.03 0.03 82 1014.6
20210622150502 76 5 4.0 7.0 0.00 0.03 0.03 83 1014.5
20210622150002 75 5 4.0 8.0 0.00 0.03 0.03 83 1014.6
20210622145502 75 5 4.0 8.0 0.00 0.03 0.03 83 1014.8
20210622145002 75 9 4.0 8.0 0.00 0.03 0.03 83 1014.8
20210622144502 74 16 4.0 8.0 0.00 0.03 0.03 84 1014.8
20210622144002 74 22 4.0 7.0 0.00 0.03 0.03 83 1014.8
20210622143502 74 19 4.0 7.0 0.00 0.03 0.03 84 1014.8
20210622143002 74 17 5.0 8.0 0.00 0.03 0.03 84 1014.8
20210622142502 74 19 5.0 8.0 0.00 0.03 0.03 84 1014.9
20210622142002 74 18 4.0 8.0 0.00 0.03 0.03 84 1014.8
20210622141502 74 8 4.0 8.0 0.00 0.03 0.03 84 1014.9
20210622141002 74 360 5.0 10.0 0.00 0.03 0.03 84 1014.9
20210622140502 74 2 5.0 10.0 0.00 0.03 0.03 84 1014.8
20210622140002 73 13 4.0 10.0 0.00 0.03 0.03 84 1014.8
20210622135502 73 19 5.0 10.0 0.00 0.03 0.03 84 1014.9
20210622135002 73 15 5.0 8.0 0.00 0.03 0.03 85 1014.8
20210622134502 73 7 5.0 13.0 0.00 0.03 0.03 85 1014.7
20210622134002 73 2 6.0 13.0 0.00 0.03 0.03 84 1014.7
20210622133502 73 2 5.0 10.0 0.00 0.03 0.03 85 1014.8
20210622133002 73 356 6.0 10.0 0.00 0.03 0.03 85 1014.8
20210622132502 73 358 5.0 8.0 0.00 0.03 0.03 85 1014.7
20210622132002 73 9 5.0 8.0 0.00 0.03 0.03 85 1014.6
20210622131502 72 4 5.0 11.0 0.00 0.03 0.03 85 1014.7
20210622131002 72 5 5.0 11.0 0.00 0.03 0.03 85 1014.6
20210622130502 72 1 6.0 10.0 0.00 0.03 0.03 85 1014.6
20210622130002 72 7 6.0 16.0 0.00 0.03 0.03 85 1014.3
20210622125502 72 17 6.0 16.0 0.00 0.03 0.03 85 1014.3
20210622125002 72 360 6.0 12.0 0.00 0.03 0.03 85 1014.2
20210622124502 72 345 5.0 10.0 0.00 0.03 0.03 85 1014.3
20210622124002 72 349 5.0 10.0 0.00 0.03 0.03 85 1014.2
20210622123502 72 356 5.0 10.0 0.00 0.03 0.03 85 1014.1
20210622123002 72 351 6.0 13.0 0.00 0.03 0.03 85 1014.2
20210622122502 72 355 7.0 13.0 0.00 0.03 0.03 85 1013.9
20210622122002 72 357 5.0 12.0 0.00 0.03 0.03 85 1013.9
20210622121502 72 340 6.0 14.0 0.00 0.03 0.03 85 1013.9
20210622121002 72 333 7.0 14.0 0.00 0.03 0.03 85 1013.7
20210622120502 72 337 6.0 14.0 0.00 0.03 0.03 85 1013.6
20210622120002 72 343 5.0 12.0 0.00 0.03 0.03 85 1013.6
20210622115502 72 343 6.0 12.0 0.00 0.03 0.03 86 1013.5
20210622115002 72 345 6.0 12.0 0.00 0.03 0.03 86 1013.3
20210622114502 73 332 6.0 11.0 0.00 0.03 0.03 86 1013.0
20210622114002 73 332 6.0 14.0 0.00 0.03 0.03 86 1013.0
20210622113502 73 341 7.0 14.0 0.00 0.03 0.03 86 1013.4
20210622113002 73 345 6.0 13.0 0.00 0.03 0.03 86 1013.3
20210622112502 73 348 7.0 13.0 0.00 0.03 0.03 86 1013.1
20210622112002 73 345 6.0 13.0 0.00 0.03 0.03 86 1013.0
20210622111502 73 336 6.0 13.0 0.00 0.03 0.03 86 1013.0
20210622111003 73 322 6.0 13.0 0.00 0.03 0.03 86 1012.9
20210622110502 73 310 5.0 11.0 0.00 0.03 0.03 86 1012.8
20210622110002 73 314 5.0 11.0 0.00 0.03 0.03 86 1012.6
20210622105502 73 316 5.0 10.0 0.00 0.03 0.03 86 1012.5
20210622105002 73 325 4.0 7.0 0.00 0.03 0.03 86 1012.5
20210622104502 73 343 2.0 7.0 0.00 0.03 0.03 86 1012.4
20210622104003 73 349 1.0 5.0 0.00 0.03 0.03 86 1012.3
20210622103502 73 349 1.0 2.0 0.00 0.03 0.03 86 1012.3
20210622103002 73 349 1.0 4.0 0.00 0.03 0.03 86 1012.1
20210622102502 74 350 2.0 5.0 0.00 0.03 0.03 86 1011.9
20210622102003 74 350 2.0 5.0 0.00 0.03 0.03 86 1011.7
20210622101502 74 351 2.0 4.0 0.00 0.03 0.03 86 1011.8
20210622101002 74 351 1.0 4.0 0.00 0.03 0.03 86 1011.8
20210622100502 74 351 1.0 2.0 0.00 0.03 0.03 86 1011.9
20210622100003 74 352 2.0 6.0 0.00 0.03 0.03 86 1012.1
20210622095503 74 353 4.0 6.0 0.00 0.03 0.03 86 1012.1
20210622095002 74 355 2.0 6.0 0.00 0.03 0.03 86 1012.1
20210622094502 74 355 2.0 6.0 0.00 0.03 0.03 86 1012.2
20210622094003 74 355 2.0 5.0 0.00 0.03 0.03 86 1012.3
20210622093503 74 355 1.0 5.0 0.00 0.03 0.03 86 1012.2
20210622093002 74 355 1.0 4.0 0.00 0.03 0.03 86 1012.3
20210622092502 74 355 1.0 5.0 0.00 0.03 0.03 86 1012.3
20210622092002 74 355 4.0 5.0 0.00 0.03 0.03 85 1012.3
20210622091502 74 355 4.0 7.0 0.00 0.03 0.03 85 1012.2
20210622091002 74 3 4.0 7.0 0.00 0.03 0.03 85 1012.0
20210622090503 74 11 4.0 8.0 0.00 0.03 0.03 85 1012.1
20210622090003 74 5 5.0 11.0 0.00 0.03 0.03 85 1012.0
20210622085502 74 5 5.0 12.0 0.00 0.03 0.03 85 1012.2
20210622085003 74 18 6.0 12.0 0.00 0.03 0.03 85 1012.2
20210622084502 74 24 5.0 12.0 0.00 0.03 0.03 85 1012.2
20210622084002 74 11 5.0 14.0 0.00 0.03 0.03 85 1012.2
20210622083503 74 10 5.0 14.0 0.00 0.03 0.03 85 1012.1
20210622083003 74 15 5.0 17.0 0.00 0.03 0.03 85 1012.3
20210622082503 75 17 6.0 18.0 0.00 0.03 0.03 85 1012.3
20210622082002 75 13 7.0 18.0 0.00 0.03 0.03 85 1012.5
20210622081503 75 2 8.0 17.0 0.00 0.03 0.03 85 1012.7
20210622081003 75 6 7.0 19.0 0.00 0.03 0.03 85 1012.7
20210622080503 75 12 7.0 19.0 0.00 0.03 0.03 85 1012.5
20210622080002 76 7 7.0 17.0 0.00 0.03 0.03 86 1012.5
20210622075503 76 9 7.0 17.0 0.00 0.03 0.03 86 1012.4
20210622075003 76 7 6.0 16.0 0.00 0.03 0.03 86 1012.3
20210622074503 76 5 7.0 17.0 0.00 0.03 0.03 85 1012.1
20210622074002 76 355 8.0 17.0 0.00 0.03 0.03 86 1011.9
20210622073503 77 346 7.0 17.0 0.00 0.03 0.03 86 1011.7
20210622073003 77 352 7.0 13.0 0.00 0.03 0.03 86 1011.6
20210622072502 77 358 6.0 12.0 0.00 0.03 0.03 86 1011.4
20210622072003 77 342 4.0 10.0 0.00 0.03 0.03 86 1011.2
20210622071503 77 318 5.0 10.0 0.01 0.03 0.03 85 1011.0
20210622071002 77 317 5.0 10.0 0.01 0.03 0.03 85 1011.1
20210622070503 78 320 6.0 11.0 0.01 0.03 0.03 85 1010.9
20210622070003 78 315 6.0 12.0 0.02 0.03 0.03 85 1010.8
20210622065503 79 302 6.0 12.0 0.03 0.03 0.03 85 1010.9
20210622065003 79 297 5.0 12.0 0.03 0.03 0.03 85 1010.9
20210622064503 79 294 4.0 7.0 0.03 0.03 0.03 85 1011.3
20210622064002 79 287 4.0 7.0 0.03 0.03 0.03 85 1011.4
20210622063503 79 284 4.0 6.0 0.03 0.03 0.03 85 1011.5
20210622063003 79 213 4.0 6.0 0.03 0.03 0.03 85 1011.7
20210622062503 79 135 2.0 5.0 0.03 0.03 0.03 85 1011.7
20210622062003 79 134 2.0 5.0 0.03 0.03 0.03 85 1011.5
20210622061503 80 133 4.0 7.0 0.02 0.02 0.02 85 1011.5
20210622061003 80 132 4.0 7.0 0.02 0.02 0.02 85 1011.4
20210622060503 80 130 1.0 5.0 0.02 0.02 0.02 84 1012.0
20210622060003 80 130 1.0 2.0 0.01 0.01 0.01 84 1012.8
20210622055503 80 130 1.0 5.0 0.00 0.00 0.00 84 1012.9
20210622055003 80 130 2.0 7.0 0.00 0.00 0.00 84 1012.6
20210622054503 81 130 4.0 10.0 0.00 0.00 0.00 84 1012.3
20210622054003 81 128 5.0 10.0 0.00 0.00 0.00 83 1012.1
20210622053503 81 128 5.0 10.0 0.00 0.00 0.00 83 1011.9
20210622053003 82 124 5.0 10.0 0.00 0.00 0.00 83 1012.1
20210622052503 82 117 4.0 10.0 0.00 0.00 0.00 82 1012.2
20210622052003 82 114 2.0 8.0 0.00 0.00 0.00 82 1012.2
20210622051524 82 113 1.0 6.0 0.00 0.00 0.00 82 1012.2
20210622051003 82 113 1.0 5.0 0.00 0.00 0.00 82 1012.5
20210622050503 82 113 2.0 6.0 0.00 0.00 0.00 82 1012.4
20210622050008 82 115 4.0 8.0 0.00 0.00 0.00 82 1012.0
20210622045503 82 138 4.0 8.0 0.00 0.00 0.00 82 1011.7
20210622045003 82 163 5.0 8.0 0.00 0.00 0.00 81 1012.0
20210622044503 82 152 4.0 7.0 0.00 0.00 0.00 81 1012.2
20210622044003 82 129 4.0 10.0 0.00 0.00 0.00 81 1011.9
20210622043503 82 140 4.0 10.0 0.00 0.00 0.00 81 1011.9
20210622043003 82 170 2.0 10.0 0.00 0.00 0.00 81 1011.9
20210622042503 82 175 4.0 7.0 0.00 0.00 0.00 81 1012.4
20210622042003 83 140 5.0 12.0 0.00 0.00 0.00 81 1012.2
20210622041503 83 113 6.0 13.0 0.00 0.00 0.00 81 1011.4
20210622041003 83 110 6.0 13.0 0.00 0.00 0.00 81 1011.7
20210622040503 83 112 6.0 12.0 0.00 0.00 0.00 81 1011.6
20210622040003 83 107 6.0 14.0 0.00 0.00 0.00 80 1011.3
20210622035503 83 110 6.0 14.0 0.00 0.00 0.00 81 1011.4
20210622035003 83 106 6.0 11.0 0.00 0.00 0.00 80 1010.5
20210622034503 83 101 6.0 11.0 0.00 0.00 0.00 80 1011.0
20210622034003 83 111 6.0 11.0 0.00 0.00 0.00 80 1010.8
20210622033503 83 119 5.0 11.0 0.00 0.00 0.00 80 1009.8
20210622033003 83 123 5.0 10.0 0.00 0.00 0.00 80 1010.1
20210622032503 83 133 5.0 8.0 0.00 0.00 0.00 80 1010.6
20210622032003 83 148 4.0 8.0 0.00 0.00 0.00 80 1010.3
20210622031503 84 157 2.0 6.0 0.00 0.00 0.00 79 1010.0
20210622031003 84 157 1.0 5.0 0.00 0.00 0.00 79 1010.2
20210622030502 84 157 2.0 6.0 0.00 0.00 0.00 79 1010.1
20210622030002 84 159 4.0 7.0 0.00 0.00 0.00 79 1009.6
20210622025502 84 161 4.0 8.0 0.00 0.00 0.00 79 1009.2
20210622025002 84 162 4.0 8.0 0.00 0.00 0.00 78 1008.9
20210622024502 84 162 4.0 7.0 0.00 0.00 0.00 78 1008.8
20210622024002 84 161 4.0 7.0 0.00 0.00 0.00 78 1008.5
20210622023502 85 160 5.0 10.0 0.00 0.00 0.00 78 1008.5
20210622023002 85 153 5.0 10.0 0.00 0.00 0.00 78 1008.4
20210622022502 85 137 5.0 10.0 0.00 0.00 0.00 77 1008.4
20210622022002 85 144 5.0 12.0 0.00 0.00 0.00 77 1008.5
20210622021502 85 143 5.0 12.0 0.00 0.00 0.00 76 1008.5
20210622021002 86 128 5.0 11.0 0.00 0.00 0.00 76 1008.4
20210622020502 86 128 6.0 12.0 0.00 0.00 0.00 75 1008.4
20210622020002 86 119 6.0 13.0 0.00 0.00 0.00 75 1008.5
20210622015502 86 120 6.0 13.0 0.00 0.00 0.00 75 1008.5
20210622015002 86 126 5.0 12.0 0.00 0.00 0.00 75 1008.4
20210622014502 86 128 5.0 13.0 0.00 0.00 0.00 74 1008.1
20210622014002 86 131 6.0 13.0 0.00 0.00 0.00 74 1007.8
20210622013502 87 138 6.0 12.0 0.00 0.00 0.00 73 1008.0
20210622013002 87 140 5.0 12.0 0.00 0.00 0.00 73 1008.1
20210622012502 87 131 5.0 10.0 0.00 0.00 0.00 73 1007.9
20210622012002 87 118 4.0 10.0 0.00 0.00 0.00 72 1008.0
20210622011502 88 113 4.0 8.0 0.00 0.00 0.00 71 1008.1
20210622011002 88 113 4.0 6.0 0.00 0.00 0.00 71 1008.0
20210622010502 88 113 4.0 8.0 0.00 0.00 0.00 70 1007.8
20210622010002 89 112 4.0 8.0 0.00 0.00 0.00 69 1008.0
20210622005502 89 111 4.0 8.0 0.00 0.00 0.00 69 1007.9
20210622005002 89 111 4.0 6.0 0.00 0.00 0.00 69 1007.9
20210622004502 90 111 2.0 6.0 0.00 0.00 0.00 68 1007.9
20210622004002 90 111 2.0 6.0 0.00 0.00 0.00 68 1007.9
20210622003502 90 108 4.0 10.0 0.00 0.00 0.00 67 1007.7
20210622003002 90 105 5.0 10.0 0.00 0.00 0.00 66 1007.6
20210622002502 91 107 5.0 10.0 0.00 0.00 0.00 66 1007.4
20210622002002 91 111 4.0 10.0 0.00 0.00 0.00 66 1007.3
20210622001502 91 122 4.0 8.0 0.00 0.00 0.00 66 1007.3
20210622001002 91 141 5.0 8.0 0.00 0.00 0.00 65 1007.3
20210622000502 92 143 5.0 10.0 0.00 0.00 0.00 64 1007.1
20210622000002 92 128 5.0 11.0 0.00 0.00 0.00 64 1006.9
20210621235502 92 133 5.0 11.0 0.00 0.00 0.00 63 1006.9
20210621235002 92 134 5.0 11.0 0.00 0.00 0.00 63 1006.8
20210621234502 93 125 5.0 11.0 0.00 0.00 0.00 62 1006.8
20210621234002 93 122 5.0 8.0 0.00 0.00 0.00 61 1006.7